Location: Quaker Farms
(41.4276°N, 73.1557°W)
Time: 12:12:39
(UTC+00:00)

Tiros 1 - All Passes

Search period start: 13 June 2021 00:00
Search period end: 23 June 2021 00:00
Orbit: 630 x 664 km, 48.4° (Epoch: 13 June)

Date Brightness Start Highest point End Pass type
(mag) Time Alt. Az. Time Alt. Az. Time Alt. Az.
13 Jun - 00:35:02 10° W 00:38:57 25° SW 00:42:54 10° SSE daylight
13 Jun - 16:28:49 10° SSW 16:33:00 33° SE 16:37:13 10° ENE daylight
13 Jun - 18:10:21 10° WSW 18:15:00 63° NNW 18:19:43 10° ENE daylight
13 Jun - 19:53:26 10° WNW 19:57:46 35° N 20:02:10 10° ENE daylight
13 Jun - 21:36:05 10° WNW 21:40:42 47° NNE 21:45:20 10° E daylight
13 Jun - 23:18:20 10° WNW 23:23:01 57° SW 23:27:43 10° SE daylight
14 Jun - 01:03:04 10° WSW 01:04:28 11° SW 01:05:52 10° SSW visible
14 Jun - 15:14:52 10° SSE 15:17:15 14° SE 15:19:37 10° E daylight
14 Jun - 16:54:08 10° SW 16:58:46 69° SSE 17:03:27 10° ENE daylight
14 Jun - 18:36:42 10° W 18:41:11 43° NNW 18:45:44 10° ENE daylight
14 Jun - 20:19:44 10° WNW 20:24:07 36° N 20:28:33 10° ENE daylight
14 Jun - 22:02:03 10° WNW 22:06:50 74° NNE 22:11:38 10° ESE daylight
14 Jun - 23:44:42 10° W 23:48:44 28° SW 23:52:49 10° SSE daylight
15 Jun - 15:38:43 10° SSW 15:42:47 31° SE 15:46:54 10° ENE daylight
15 Jun - 17:20:06 10° WSW 17:24:45 67° NNW 17:29:28 10° ENE daylight
15 Jun - 19:03:08 10° WNW 19:07:29 35° N 19:11:52 10° ENE daylight
15 Jun - 20:45:51 10° WNW 20:50:25 45° NNE 20:55:01 10° E daylight
15 Jun - 22:28:04 10° WNW 22:32:47 62° SW 22:37:30 10° SE daylight
16 Jun - 00:12:19 10° WSW 00:14:16 12° SW 00:16:14 10° SSW daylight
16 Jun - 14:25:07 10° SSE 14:27:04 12° SE 14:29:01 10° ESE daylight
16 Jun - 16:03:56 10° SW 16:08:32 64° SE 16:13:11 10° ENE daylight
16 Jun - 17:46:25 10° W 17:50:55 44° NNW 17:55:27 10° ENE daylight
16 Jun - 19:29:28 10° WNW 19:33:50 36° N 19:38:14 10° ENE daylight
16 Jun - 21:11:49 10° WNW 21:16:34 70° NNE 21:21:20 10° ESE daylight
16 Jun - 22:54:23 10° WNW 22:58:32 30° SW 23:02:41 10° SSE daylight
17 Jun - 14:48:38 10° SSW 14:52:34 28° SE 14:56:34 10° ENE daylight
17 Jun - 16:29:50 10° WSW 16:34:29 71° NNW 16:39:12 10° ENE daylight
17 Jun - 18:12:52 10° WNW 18:17:12 36° N 18:21:35 10° ENE daylight
17 Jun - 19:55:36 10° WNW 20:00:07 44° NNE 20:04:42 10° E daylight
17 Jun - 21:37:49 10° WNW 21:42:33 66° SSW 21:47:17 10° SE daylight
17 Jun - 23:21:43 10° W 23:24:04 14° SW 23:26:26 10° SSW daylight
18 Jun - 13:35:30 10° SSE 13:36:53 11° SE 13:38:16 10° ESE daylight
18 Jun - 15:13:45 10° SW 15:18:18 59° SE 15:22:55 10° ENE daylight
18 Jun - 16:56:09 10° W 17:00:38 46° NNW 17:05:11 10° ENE daylight
18 Jun - 18:39:13 10° WNW 18:43:33 35° N 18:47:56 10° ENE daylight
18 Jun - 20:21:35 10° WNW 20:26:18 66° NNE 20:31:04 10° ESE daylight
18 Jun - 22:04:05 10° WNW 22:08:19 32° SW 22:12:34 10° SSE daylight
19 Jun - 13:58:34 10° SSW 14:02:22 26° SE 14:06:14 10° E daylight
19 Jun - 15:39:35 10° WSW 15:44:14 75° NNW 15:48:57 10° ENE daylight
19 Jun - 17:22:35 10° WNW 17:26:55 36° N 17:31:18 10° ENE daylight
19 Jun - 19:05:21 10° WNW 19:09:51 42° NNE 19:14:23 10° E daylight
19 Jun - 20:47:34 10° WNW 20:52:18 71° SSW 20:57:03 10° SE daylight
19 Jun - 22:31:12 10° W 22:33:52 15° SW 22:36:34 10° SSW daylight
20 Jun - 14:23:34 10° SW 14:28:05 54° SE 14:32:38 10° ENE daylight
20 Jun - 16:05:52 10° W 16:10:22 47° NNW 16:14:55 10° ENE daylight
20 Jun - 17:48:57 10° WNW 17:53:16 35° N 17:57:36 10° ENE daylight
20 Jun - 19:31:21 10° WNW 19:36:02 62° NNE 19:40:45 10° ESE daylight
20 Jun - 21:13:47 10° WNW 21:18:06 35° SW 21:22:25 10° SSE daylight
21 Jun - 13:08:31 10° S 13:12:11 24° SE 13:15:53 10° E daylight
21 Jun - 14:49:21 10° WSW 14:53:59 80° NNW 14:58:41 10° ENE daylight
21 Jun - 16:32:18 10° WNW 16:36:38 37° N 16:41:00 10° ENE daylight
21 Jun - 18:15:07 10° WNW 18:19:35 41° NNE 18:24:04 10° E daylight
21 Jun - 19:57:19 10° WNW 20:02:02 76° SSW 20:06:48 10° SE daylight
21 Jun - 21:40:45 10° W 21:43:40 16° SW 21:46:37 10° S daylight
22 Jun - 13:33:24 10° SW 13:37:51 50° SE 13:42:21 10° ENE daylight
22 Jun - 15:15:35 10° W 15:20:06 49° NNW 15:24:40 10° ENE daylight
22 Jun - 16:58:41 10° WNW 17:02:59 35° N 17:07:18 10° ENE daylight
22 Jun - 18:41:06 10° WNW 18:45:46 59° NNE 18:50:28 10° ESE daylight
22 Jun - 20:23:30 10° WNW 20:27:52 38° SW 20:32:15 10° SSE daylight
